Location: Austin
(30.3000°N, 97.7500°W)
Time: 07:34:46
(UTC-05:00)

Cosmos 1655 Rocket - Pass Details

Date: 19 September 2023
Orbit: 971 x 1005 km, 82.9° (Epoch: 25 September)

Event Time Altitude Azimuth Distance (km) Brightness Sun altitude
Rises 06:30:06 0° 204° (SSW) 3,694 6.7 -11.0°
Reaches altitude 10° 06:32:47 10° 212° (SSW) 2,753 6.0 -10.5°
Maximum altitude 06:38:39 40° 280° (W) 1,443 4.5 -9.2°
Drops below altitude 10° 06:44:35 10° 348° (NNW) 2,780 6.3 -7.9°
Sets 06:47:19 0° 356° (N) 3,735 7.1 -7.3°
